TimeEST,TemperatureF,Dew PointF,Humidity,Sea Level PressureIn,VisibilityMPH,Wind Direction,Wind SpeedMPH,Gust SpeedMPH,PrecipitationIn,Events,Conditions,WindDirDegrees,DateUTC
12:15 AM,44.6,17.6,34,30.17,10.0,ENE,5.8,-,N/A,,Clear,70,2013-12-14 05:15:00
12:35 AM,44.6,17.6,34,30.19,10.0,ENE,4.6,-,N/A,,Clear,70,2013-12-14 05:35:00
12:55 AM,42.8,17.6,36,30.16,10.0,ENE,8.1,-,N/A,,Clear,70,2013-12-14 05:55:00
1:15 AM,44.6,19.4,37,30.18,10.0,ENE,4.6,-,N/A,,Mostly Cloudy,70,2013-12-14 06:15:00
1:35 AM,44.6,19.4,37,30.16,10.0,ENE,4.6,-,N/A,,Mostly Cloudy,70,2013-12-14 06:35:00
1:55 AM,44.6,19.4,37,30.16,10.0,East,4.6,-,N/A,,Scattered Clouds,80,2013-12-14 06:55:00
2:15 AM,44.6,21.2,39,30.15,10.0,ENE,5.8,-,N/A,,Clear,70,2013-12-14 07:15:00
2:35 AM,44.6,21.2,39,30.15,10.0,East,3.5,-,N/A,,Clear,80,2013-12-14 07:35:00
2:55 AM,44.6,21.2,39,30.13,10.0,East,5.8,-,N/A,,Scattered Clouds,80,2013-12-14 07:55:00
3:15 AM,44.6,21.2,39,30.14,10.0,Calm,Calm,-,N/A,,Mostly Cloudy,0,2013-12-14 08:15:00
3:35 AM,44.6,21.2,39,30.14,10.0,ENE,3.5,-,N/A,,Overcast,70,2013-12-14 08:35:00
3:55 AM,44.6,21.2,39,30.12,10.0,East,6.9,-,N/A,,Overcast,80,2013-12-14 08:55:00
4:15 AM,44.6,21.2,39,30.11,10.0,East,6.9,-,N/A,,Mostly Cloudy,80,2013-12-14 09:15:00
4:35 AM,44.6,21.2,39,30.09,10.0,East,9.2,-,N/A,,Mostly Cloudy,80,2013-12-14 09:35:00
4:55 AM,44.6,23.0,43,30.09,10.0,ENE,5.8,-,N/A,,Mostly Cloudy,70,2013-12-14 09:55:00
5:15 AM,44.6,23.0,43,30.08,10.0,East,4.6,-,N/A,,Overcast,80,2013-12-14 10:15:00
5:35 AM,44.6,23.0,43,30.08,10.0,East,6.9,-,N/A,,Overcast,100,2013-12-14 10:35:00
5:55 AM,44.6,26.6,49,30.07,10.0,East,5.8,-,N/A,,Overcast,90,2013-12-14 10:55:00
6:15 AM,44.6,26.6,49,30.08,10.0,East,4.6,-,N/A,,Overcast,90,2013-12-14 11:15:00
6:35 AM,44.6,28.4,53,30.07,10.0,East,6.9,-,N/A,,Overcast,80,2013-12-14 11:35:00
6:55 AM,44.6,30.2,57,30.04,10.0,ENE,5.8,-,N/A,,Overcast,70,2013-12-14 11:55:00
7:15 AM,44.6,32.0,61,30.02,10.0,ENE,5.8,-,N/A,,Drizzle,70,2013-12-14 12:15:00
7:35 AM,44.6,35.6,71,30.00,7.0,East,8.1,-,N/A,Rain,Rain,80,2013-12-14 12:35:00
7:55 AM,44.6,37.4,76,29.99,10.0,ENE,4.6,-,N/A,,Drizzle,70,2013-12-14 12:55:00
8:15 AM,44.6,39.2,81,29.97,7.0,ENE,5.8,-,N/A,Rain,Light Rain,70,2013-12-14 13:15:00
8:35 AM,44.6,41.0,87,29.97,7.0,East,4.6,-,N/A,Rain,Rain,80,2013-12-14 13:35:00
8:55 AM,44.6,41.0,87,29.96,5.0,East,5.8,-,N/A,Rain,Light Rain,80,2013-12-14 13:55:00
9:15 AM,44.6,41.0,87,29.97,1.8,East,3.5,-,N/A,Rain,Light Rain,90,2013-12-14 14:15:00
9:35 AM,44.6,41.0,87,29.96,1.0,East,8.1,-,N/A,,Unknown,80,2013-12-14 14:35:00
9:55 AM,44.6,42.8,93,29.97,1.5,ENE,3.5,-,N/A,,Overcast,70,2013-12-14 14:55:00
10:15 AM,44.6,42.8,93,29.97,0.8,ENE,3.5,-,N/A,,Overcast,70,2013-12-14 15:15:00
10:35 AM,44.6,42.8,93,29.95,1.5,Calm,Calm,-,N/A,Rain,Rain,0,2013-12-14 15:35:00
10:55 AM,44.6,42.8,93,29.95,1.5,ENE,5.8,-,N/A,Rain,Heavy Rain,60,2013-12-14 15:55:00
11:15 AM,44.6,42.8,93,29.97,0.2,ENE,5.8,-,N/A,,Unknown,70,2013-12-14 16:15:00
11:35 AM,44.6,42.8,93,29.94,1.0,NE,5.8,-,N/A,Rain,Light Rain,40,2013-12-14 16:35:00
11:55 AM,46.4,42.8,87,29.93,10.0,East,3.5,-,N/A,,Drizzle,80,2013-12-14 16:55:00
12:15 PM,46.4,42.8,87,29.91,7.0,ESE,5.8,-,N/A,Rain,Light Rain,110,2013-12-14 17:15:00
12:35 PM,46.4,42.8,87,29.90,10.0,East,4.6,-,N/A,,Overcast,90,2013-12-14 17:35:00
12:55 PM,46.4,44.6,93,29.89,7.0,East,4.6,-,N/A,,Overcast,80,2013-12-14 17:55:00
1:15 PM,46.4,44.6,93,29.87,3.0,ENE,5.8,-,N/A,,Light Drizzle,70,2013-12-14 18:15:00
1:35 PM,46.4,44.6,93,29.87,2.0,Calm,Calm,-,N/A,,Heavy Drizzle,0,2013-12-14 18:35:00
1:55 PM,46.4,44.6,93,29.87,4.0,Calm,Calm,-,N/A,,Light Drizzle,0,2013-12-14 18:55:00
2:15 PM,46.4,44.6,93,29.86,1.8,ENE,4.6,-,N/A,Rain,Light Rain,60,2013-12-14 19:15:00
2:35 PM,46.4,44.6,93,29.85,1.2,Calm,Calm,-,N/A,,Drizzle,0,2013-12-14 19:35:00
2:55 PM,46.4,44.6,93,29.84,1.5,East,4.6,-,N/A,,Light Drizzle,90,2013-12-14 19:55:00
3:15 PM,46.4,44.6,93,29.84,2.0,East,4.6,-,N/A,,Overcast,100,2013-12-14 20:15:00
3:35 PM,46.4,44.6,93,29.84,1.8,East,3.5,-,N/A,,Overcast,100,2013-12-14 20:35:00
3:55 PM,46.4,44.6,93,29.85,1.2,East,3.5,-,N/A,,Overcast,90,2013-12-14 20:55:00
4:15 PM,46.4,44.6,93,29.85,1.0,ENE,3.5,-,N/A,,Overcast,70,2013-12-14 21:15:00
4:35 PM,46.4,44.6,93,29.86,1.5,Calm,Calm,-,N/A,,Overcast,0,2013-12-14 21:35:00
4:55 PM,46.4,44.6,93,29.86,2.0,Calm,Calm,-,N/A,,Overcast,0,2013-12-14 21:55:00
5:15 PM,46.4,44.6,93,29.87,2.0,Calm,Calm,-,N/A,,Light Drizzle,0,2013-12-14 22:15:00
5:35 PM,46.4,44.6,93,29.87,2.5,ENE,3.5,-,N/A,,Overcast,70,2013-12-14 22:35:00
5:55 PM,46.4,44.6,93,29.87,1.2,ESE,4.6,-,N/A,,Overcast,110,2013-12-14 22:55:00
6:15 PM,46.4,44.6,93,29.87,1.0,East,3.5,-,N/A,,Overcast,100,2013-12-14 23:15:00
6:35 PM,46.4,44.6,93,29.86,2.5,Calm,Calm,-,N/A,Rain,Light Rain,0,2013-12-14 23:35:00
6:55 PM,46.4,44.6,93,29.87,1.5,Calm,Calm,-,N/A,,Overcast,0,2013-12-14 23:55:00
7:15 PM,46.4,44.6,93,29.89,1.5,Calm,Calm,-,N/A,,Overcast,0,2013-12-15 00:15:00
7:35 PM,46.4,44.6,93,29.90,0.8,Calm,Calm,-,N/A,,Overcast,0,2013-12-15 00:35:00
7:55 PM,46.4,44.6,93,29.89,0.8,Calm,Calm,-,N/A,,Overcast,0,2013-12-15 00:55:00
8:15 PM,46.4,44.6,93,29.87,0.2,Calm,Calm,-,N/A,Fog,Fog,0,2013-12-15 01:15:00
8:35 PM,46.4,44.6,93,29.89,0.5,Calm,Calm,-,N/A,Fog,Fog,0,2013-12-15 01:35:00
8:55 PM,46.4,44.6,93,29.88,0.5,Calm,Calm,-,N/A,Fog,Fog,0,2013-12-15 01:55:00
9:15 PM,46.4,44.6,93,29.85,0.2,ESE,4.6,-,N/A,Fog,Fog,120,2013-12-15 02:15:00
9:35 PM,46.4,44.6,93,29.88,0.2,Calm,Calm,-,N/A,Fog,Fog,0,2013-12-15 02:35:00
9:55 PM,46.4,44.6,93,29.86,0.2,Calm,Calm,-,N/A,Fog,Fog,0,2013-12-15 02:55:00
10:15 PM,46.4,44.6,93,29.86,0.2,SSE,3.5,-,N/A,Fog,Fog,160,2013-12-15 03:15:00
10:35 PM,46.4,44.6,93,29.87,0.2,Calm,Calm,-,N/A,Fog,Fog,0,2013-12-15 03:35:00
10:55 PM,46.4,44.6,93,29.86,0.2,Calm,Calm,-,N/A,Fog,Fog,0,2013-12-15 03:55:00
11:15 PM,46.4,44.6,93,29.85,0.2,Calm,Calm,-,N/A,Fog,Fog,0,2013-12-15 04:15:00
11:35 PM,46.4,44.6,93,29.86,0.2,Calm,Calm,-,N/A,Fog,Fog,0,2013-12-15 04:35:00
11:55 PM,46.4,44.6,93,29.86,0.8,WNW,4.6,-,N/A,,Overcast,290,2013-12-15 04:55:00